Location: Mercogliano
(40.9167°N, 14.7333°E)
Time: 09:25:40
(UTC+00:00)

Cosmos 2150 Rocket - Visible Passes

Search period start: 17 January 2021 00:00
Search period end: 27 January 2021 00:00
Orbit: 749 x 807 km, 74.0° (Epoch: 16 January)

Date Brightness Start Highest point End Pass type
(mag) Time Alt. Az. Time Alt. Az. Time Alt. Az.
17 Jan 6.4 05:07:34 10° N 05:11:29 21° ENE 05:15:27 10° ESE visible
18 Jan 6.7 04:34:34 10° NNE 04:37:13 14° NE 04:39:51 10° E visible
19 Jan 4.7 05:40:58 10° NNW 05:46:14 60° ENE 05:51:33 10° SSE visible
20 Jan 5.4 05:07:13 10° N 05:12:11 38° ENE 05:17:11 10° SE visible
21 Jan 6.1 04:33:39 10° N 04:38:02 25° ENE 04:42:27 10° ESE visible
22 Jan 6.6 04:00:24 10° NNE 04:03:48 17° NE 04:07:13 10° E visible
22 Jan 4.1 05:41:17 10° NNW 05:46:36 69° WSW 05:51:58 10° S visible
23 Jan 6.9 03:28:02 10° NE 03:29:28 11° NE 03:30:54 10° ENE visible
23 Jan 4.3 05:07:18 10° NNW 05:12:40 76° ENE 05:18:04 10° SSE visible
24 Jan 5.0 04:33:29 10° N 04:38:39 48° ENE 04:43:52 10° SE visible
24 Jan 6.3 19:12:25 10° SSW 19:13:19 15° SSW 19:13:19 15° SSW visible
25 Jan 5.8 03:59:49 10° N 04:04:34 31° ENE 04:09:19 10° SE visible
25 Jan 4.8 05:42:01 10° NW 05:46:49 34° W 05:51:38 10° SSW visible
25 Jan 5.0 18:38:22 10° SSW 18:41:20 36° SSW 18:41:20 36° SSW visible
26 Jan 6.4 03:26:23 10° N 03:30:22 21° ENE 03:34:22 10° ESE visible
26 Jan 4.2 05:07:45 10° NNW 05:12:59 55° WSW 05:18:15 10° S visible
26 Jan 4.1 18:04:40 10° S 18:09:23 51° ESE 18:09:23 51° ESE visible
26 Jan 6.6 19:48:26 10° WSW 19:49:57 16° W 19:49:57 16° W visible
